User: anonymous   Login
Location: Caltech
(34.1382°N, 118.1253°W)
Time: 01:55:05
(UTC-07:00)
Language:

Cosmos 2333 Rocket - Orbit

View from above orbital plane
View from above orbital plane
View from above satellite
View from above satellite

Ground track
Ground track

The orbit data is extracted from the following two-line orbital elements,

1 24298U 96051B   14304.41132685 -.00000163  00000-0 -62097-4 0  5893
2 24298 070.8598 285.0796 0015664 179.0227 290.4010 14.12457478936301
Epoch (UTC): 31 October 2014 09:52:18
Eccentricity: 0.0015664
inclination: 70.8598°
perigee height: 839 km
apogee height: 862 km
right ascension of ascending node: 285.0796°
argument of perigee: 179.0227°
revolutions per day: 14.12457478
mean anomaly at epoch: 290.4010°
orbit number at epoch: 93630

The dashed part of the orbit path shows where the satellite is in the earth's shadow,  

DLR